If you wish to contribute or participate in the discussions about articles you are invited to join SKYbrary as a registered user

 Actions

Hassi Messaoud/Oued Irara - Krim Belkacem Airport

From SKYbrary Wiki

DAUH
Airport
ICAO: DAUH – IATA: HME
Summary
Name Hassi Messaoud/Oued Irara - Krim Belkacem Airport
Region Africa
Territory Algeria DZ.gif
Location Hassi Messaoud, Ouargla
Serving Hassi Messaoud
Elevation 139.903 m
459 ft
459 ft139.903 m
Coordinates 31° 40' 31.09" N, 6° 8' 43.57" E
Runways
Designator Length Width Surface ROPS
1/19 0 m0 ft
0 m0 ft
UNK no/no
18/36 3000 m9,842.52 ft
45 m147.638 ft
ASP yes/yes


METAR
Observation DAUH 081600Z 23013KT 5000 NSC 20/07 Q1014
Station Hassi-Messaoud
Date/Time 08 December 2019 16:00:00
Wind direction 230°
Wind speed 13 kts
Lowest cloud amount nil significant cloud
Temperature 20°C
Dew point 7°C
Humidity 42%
QNH 1014 hPa
Weather condition n/a

Hassi Messaoud/Oued Irara - Krim Belkacem Airport

ICAO: DAUH IATA: HME

Description

Oued Irara - Krim Belkacem Airport is an airport serving Hassi Messaoud, a city in the Ouargla Province of eastern Algeria. It is located 5 nm southeast of the city.

Maps

Terrain

Loading map...

Airport Layout

Loading map...


Accidents & Serious Incidents at or in vicinity of DAUH

None on SKYbrary